This demonstration page uses our WeatherBlox Daily Observations layout. Learn more.

Left ArrowRight Arrow

Hourly Observations for July 26, 2016

Temp ( °F °C ) Dew Point ( °F °C ) Humidity (%) Winds ( mph kmh ) Pressure ( in mb ) Visibility ( mi km ) Precip ( " mm )
12:53 am 00:53 Clear 72 22.2 61 16.1 68 68 SSE 9 15 30.09 1019 10 16 0.00 0.00
1:53 am 01:53 Clear 70 21.1 61 16.1 73 73 SSE 6 9 30.08 1019 10 16 0.00 0.00
2:53 am 02:53 Clear 69 20.6 60 15.6 73 73 S 6 9 30.06 1018 10 16 0.00 0.00
3:53 am 03:53 Clear 67 19.4 60 15.6 79 79 Calm 30.06 1018 10 16 0.00 0.00
4:53 am 04:53 Clear 66 18.9 60 15.6 81 81 S 3 6 30.06 1018 10 16 0.00 0.00
5:53 am 05:53 Clear 65 18.3 60 15.6 84 84 S 3 6 30.06 1018 10 16 0.00 0.00
6:53 am 06:53 Sunny 64 17.8 59 15 84 84 Calm 30.06 1018 10 16 0.00 0.00
7:53 am 07:53 Sunny 67 19.4 61 16.1 81 81 S 5 7 30.06 1018 10 16 0.00 0.00
8:53 am 08:53 Sunny 71 21.7 62 16.7 73 73 S 7 11 30.07 1018 10 16 0.00 0.00
9:53 am 09:53 Sunny 76 24.4 64 17.8 67 67 SSE 9 15 30.06 1018 10 16 0.00 0.00
10:53 am 10:53 Sunny 79 26.1 65 18.3 62 62 SSE 9 15 30.05 1018 10 16 0.00 0.00
11:53 am 11:53 Sunny 82 27.8 66 18.9 58 58 S 7 11 30.04 1017 10 16 0.00 0.00
12:53 pm 12:53 Sunny 84 28.9 65 18.3 53 53 S 8 13 30.03 1017 10 16 0.00 0.00
1:53 pm 13:53 Sunny 86 30 63 17.2 46 46 SSE 12 19 30.00 1016 10 16 0.00 0.00
2:53 pm 14:53 Sunny 88 31.1 63 17.2 43 43 SSE 13 20 29.99 1016 10 16 0.00 0.00
3:53 pm 15:53 Sunny 88 31.1 65 18.3 46 46 ESE 12 19 29.97 1015 10 16 0.00 0.00
4:53 pm 16:53 Sunny 88 31.1 63 17.2 43 43 SE 13 20 29.96 1015 10 16 0.00 0.00
5:53 pm 17:53 Sunny 87 30.6 66 18.9 50 50 SE 13 20 29.94 1014 10 16 0.00 0.00
6:53 pm 18:53 Sunny 87 30.6 63 17.2 45 45 S 9 15 29.95 1014 10 16 0.00 0.00
7:53 pm 19:53 Sunny 84 28.9 65 18.3 53 53 SSE 9 15 29.96 1015 10 16 0.00 0.00
8:53 pm 20:53 Sunny 80 26.7 66 18.9 62 62 SSE 9 15 29.96 1015 10 16 0.00 0.00
9:53 pm 21:53 Clear 78 25.6 64 17.8 62 62 SSE 8 13 29.96 1015 10 16 0.00 0.00
10:53 pm 22:53 Clear 76 24.4 64 17.8 67 67 S 5 7 30.00 1016 10 16 0.00 0.00
11:53 pm 23:53 Clear 74 23.3 64 17.8 71 71 S 7 11 29.98 1015 10 16 0.00 0.00

Powered by AerisWeather